Deer Park, WA
on Sunday, January 13, 2013

Sunday
Previous Day Next Day
Daily Summary
 ActualAverageRecord
Temperature
Mean Temperature °F / °C 27°F / -3°C  
Max Temperature 24°F / -4°C 33°F / 1°C 47°F / 8°C (2014)
Min Temperature 7°F / -14°C 21°F / -6°C -8°F / -22°C (2007)
Degree Days
Heating Degree Days 49 38  
Month to date heating degree days 552 506  
Since 1 July heating degree days 3345 3733  
Cooling Degree Days 0 0  
Month to date cooling degree days 0 0  
Year to date cooling degree days 0 0  
Moisture
Dew Point 10°F / -12°C   
Average Humidity 80    
Maximum Humidity 92    
Minimum Humidity 68    
Precipitation
Precipitation T in / T cm 0.10 in / 2.54 cm 1.00 in / 2.54 cm (2006)
Month to date precipitation 1.11 1.32  
Year to date precipitation 1.11 1.32  
Wind
Wind Speed 2 mph / 3 km/h   
Max Wind Speed 7 mph / 11 km/h   
Max Gust Speed 7 mph / 11 km/h   
Visibility 9 miles / 14 kilometers   
Events Snow   

Key: T is trace of precipitation, MM is missing value
Source: NWS Daily Summary
Time(PST)TemperatureDew PointHumidity Pressure Visibility Wind DirectionWind SpeedGust SpeedPrecipitationEvents Conditions
12:53 AM 9.0°F / -12.8°C 7.0°F / -13.9°C 92% 30.40 in / 1029.5 hPa 7.0 miles / 11.3 kilometers Calm Calm - N/A   Overcast
1:53 AM 10.9°F / -11.7°C 9.0°F / -12.8°C 92% 30.41 in / 1029.7 hPa 3.0 miles / 4.8 kilometers Calm Calm - 0.00 in / 0.0 cm Snow Light Snow
2:01 AM 10.4°F / -12.0°C 8.6°F / -13.0°C 92% 30.29 in / 1025.6 hPa 2.5 miles / 4.0 kilometers Calm Calm - 0.00 in / 0.0 cm Snow Light Snow
2:15 AM 10.4°F / -12.0°C 8.6°F / -13.0°C 92% 30.30 in / 1026.0 hPa 4.0 miles / 6.4 kilometers Calm Calm - 0.00 in / 0.0 cm Snow Light Snow
2:53 AM 10.0°F / -12.2°C 7.0°F / -13.9°C 87% 30.42 in / 1030.0 hPa 9.0 miles / 14.5 kilometers Calm Calm - 0.00 in / 0.0 cm   Overcast
3:53 AM 8.1°F / -13.3°C 5.0°F / -15.0°C 87% 30.43 in / 1030.4 hPa 10.0 miles / 16.1 kilometers NW 3.5 mph / 5.6 km/h - N/A   Overcast
4:53 AM 10.0°F / -12.2°C 7.0°F / -13.9°C 87% 30.44 in / 1030.6 hPa 8.0 miles / 12.9 kilometers Calm Calm - N/A   Overcast
5:53 AM 12.0°F / -11.1°C 9.0°F / -12.8°C 88% 30.45 in / 1031.1 hPa 10.0 miles / 16.1 kilometers Calm Calm - N/A   Overcast
6:53 AM 10.9°F / -11.7°C 9.0°F / -12.8°C 92% 30.50 in / 1032.7 hPa 10.0 miles / 16.1 kilometers WNW 3.5 mph / 5.6 km/h - N/A   Overcast
7:53 AM 12.0°F / -11.1°C 10.0°F / -12.2°C 92% 30.52 in / 1033.3 hPa 10.0 miles / 16.1 kilometers WNW 4.6 mph / 7.4 km/h - N/A   Overcast
8:53 AM 12.9°F / -10.6°C 10.9°F / -11.7°C 92% 30.52 in / 1033.5 hPa 10.0 miles / 16.1 kilometers NNW 3.5 mph / 5.6 km/h - N/A   Overcast
9:42 AM 15.8°F / -9.0°C 12.2°F / -11.0°C 86% 30.37 in / 1028.3 hPa 10.0 miles / 16.1 kilometers Calm Calm - N/A   Overcast
9:53 AM 15.1°F / -9.4°C 12.0°F / -11.1°C 88% 30.51 in / 1033.0 hPa 10.0 miles / 16.1 kilometers NNW 3.5 mph / 5.6 km/h - N/A   Overcast
10:08 AM 15.8°F / -9.0°C 12.2°F / -11.0°C 86% 30.37 in / 1028.3 hPa 10.0 miles / 16.1 kilometers North 3.5 mph / 5.6 km/h - N/A   Overcast
10:31 AM 15.8°F / -9.0°C 10.4°F / -12.0°C 79% 30.37 in / 1028.3 hPa 10.0 miles / 16.1 kilometers North 5.8 mph / 9.3 km/h - N/A   Scattered Clouds
10:53 AM 18.0°F / -7.8°C 12.0°F / -11.1°C 78% 30.50 in / 1032.7 hPa 10.0 miles / 16.1 kilometers North 5.8 mph / 9.3 km/h - N/A   Clear
11:53 AM 21.0°F / -6.1°C 12.0°F / -11.1°C 68% 30.48 in / 1032.1 hPa 10.0 miles / 16.1 kilometers Calm Calm - N/A   Clear
12:53 PM 19.0°F / -7.2°C 14.0°F / -10.0°C 81% 30.47 in / 1031.8 hPa 10.0 miles / 16.1 kilometers SSW 3.5 mph / 5.6 km/h - N/A   Clear
1:53 PM 19.9°F / -6.7°C 12.0°F / -11.1°C 71% 30.46 in / 1031.3 hPa 10.0 miles / 16.1 kilometers Calm Calm - N/A   Clear
2:53 PM 16.0°F / -8.9°C 10.0°F / -12.2°C 77% 30.47 in / 1031.7 hPa 10.0 miles / 16.1 kilometers South 4.6 mph / 7.4 km/h - N/A   Clear
3:53 PM 14.0°F / -10.0°C 9.0°F / -12.8°C 80% 30.48 in / 1032.0 hPa 10.0 miles / 16.1 kilometers South 4.6 mph / 7.4 km/h - N/A   Clear
4:53 PM 15.1°F / -9.4°C 10.9°F / -11.7°C 84% 30.48 in / 1031.9 hPa 10.0 miles / 16.1 kilometers South 3.5 mph / 5.6 km/h - N/A   Mostly Cloudy
5:53 PM 14.0°F / -10.0°C 10.0°F / -12.2°C 84% 30.48 in / 1032.0 hPa 10.0 miles / 16.1 kilometers Calm Calm - N/A   Scattered Clouds
6:53 PM 15.1°F / -9.4°C 10.0°F / -12.2°C 80% 30.48 in / 1032.1 hPa 10.0 miles / 16.1 kilometers Calm Calm - N/A   Mostly Cloudy
7:53 PM 14.0°F / -10.0°C 10.9°F / -11.7°C 88% 30.49 in / 1032.4 hPa 10.0 miles / 16.1 kilometers Calm Calm - N/A   Overcast
8:53 PM 16.0°F / -8.9°C 12.9°F / -10.6°C 88% 30.49 in / 1032.3 hPa 10.0 miles / 16.1 kilometers Calm Calm - N/A   Overcast
9:53 PM 15.1°F / -9.4°C 12.0°F / -11.1°C 88% 30.49 in / 1032.4 hPa 8.0 miles / 12.9 kilometers Calm Calm - N/A   Overcast
10:53 PM 15.1°F / -9.4°C 12.0°F / -11.1°C 88% 30.48 in / 1032.1 hPa 10.0 miles / 16.1 kilometers Calm Calm - N/A   Overcast
11:53 PM 16.0°F / -8.9°C 12.0°F / -11.1°C 84% 30.47 in / 1031.8 hPa 10.0 miles / 16.1 kilometers Calm Calm - N/A   Overcast
Moon Phase
Jan. 13 Jan. 18 Jan. 26 Feb. 03 Feb. 10
Sunrise:07:35 AM (PST) Moon Rise:08:23 AM (PST)1/13
Sunset:04:21 PM (PST) Moon Set:07:21 PM (PST)1/13

Copyright © 2014 The Weather Underground, Inc.